TBA147 ZUUU-ZULS

Flight info

Callsign TBA147
Flight time 2h 0m
Altitude 321
Route MUMGO B213 LXA
Aircraft A319/L-SDE2E3GHIJ3J4J5LM1ORWXY/LB1D1

Departure

Time 2026-04-22 11:37
Airport Chengdu Shuangliu International Airport (ZUUU)

Arrival

Time 2026-04-22 13:37
Airport Lhasa Gonggar International Airport (ZULS)
Time Latitude Longitude Altitude Speed Heading
2026-04-22 11:18 30.56934 103.94988 1646 ft 0 kts 22°
2026-04-22 11:25 30.56925 103.94983 1646 ft 4 kts 21°
2026-04-22 11:26 30.56899 103.94972 1646 ft 4 kts 19°
2026-04-22 11:26 30.56874 103.94962 1646 ft 4 kts 16°
2026-04-22 11:26 30.56848 103.94954 1646 ft 4 kts 12°
2026-04-22 11:26 30.56821 103.94949 1646 ft 4 kts
2026-04-22 11:27 30.56795 103.94951 1646 ft 4 kts 330°
2026-04-22 11:27 30.56786 103.94960 1646 ft 0 kts 292°
2026-04-22 11:29 30.56791 103.94947 1646 ft 4 kts 294°
2026-04-22 11:29 30.56808 103.94900 1646 ft 8 kts 290°
2026-04-22 11:29 30.56832 103.94829 1646 ft 10 kts 292°
2026-04-22 11:30 30.56862 103.94745 1646 ft 13 kts 292°
2026-04-22 11:30 30.56898 103.94640 1646 ft 15 kts 292°
2026-04-22 11:30 30.56868 103.94569 1646 ft 12 kts 204°
2026-04-22 11:30 30.56781 103.94528 1646 ft 15 kts 201°
2026-04-22 11:31 30.56678 103.94480 1646 ft 17 kts 202°
2026-04-22 11:31 30.56598 103.94443 1646 ft 7 kts 202°
2026-04-22 11:31 30.56544 103.94413 1646 ft 10 kts 224°
2026-04-22 11:31 30.56551 103.94334 1646 ft 10 kts 292°
2026-04-22 11:32 30.56504 103.94285 1646 ft 11 kts 202°
2026-04-22 11:32 30.56424 103.94244 1646 ft 14 kts 200°
2026-04-22 11:32 30.56332 103.94203 1646 ft 12 kts 202°
2026-04-22 11:32 30.56316 103.94133 1646 ft 10 kts 294°
2026-04-22 11:33 30.56344 103.94053 1646 ft 12 kts 291°
2026-04-22 11:33 30.56373 103.94004 1646 ft 2 kts
2026-04-22 11:33 30.56392 103.94017 1646 ft 0 kts 24°
2026-04-22 11:36 30.56409 103.94026 1646 ft 14 kts 24°
2026-04-22 11:36 30.56763 103.94191 1646 ft 92 kts 21°
2026-04-22 11:36 30.57558 103.94560 1646 ft 151 kts 21°
2026-04-22 11:36 30.58654 103.95070 1846 ft 181 kts 20°
2026-04-22 11:37 30.59910 103.95529 2288 ft 198 kts 11°
2026-04-22 11:37 30.61322 103.95524 2781 ft 211 kts 341°
2026-04-22 11:37 30.62651 103.94836 3577 ft 205 kts 334°
2026-04-22 11:37 30.63955 103.94119 3981 ft 221 kts 334°
2026-04-22 11:38 30.65401 103.93304 4041 ft 239 kts 333°
2026-04-22 11:38 30.66920 103.92452 4086 ft 249 kts 334°
2026-04-22 11:38 30.70252 103.90625 5641 ft 272 kts 335°
2026-04-22 11:39 30.71983 103.89687 6600 ft 277 kts 336°
2026-04-22 11:39 30.73698 103.88634 7531 ft 282 kts 324°
2026-04-22 11:39 30.74985 103.86897 8458 ft 289 kts 299°
2026-04-22 11:39 30.75541 103.84638 9395 ft 297 kts 275°
2026-04-22 11:40 30.75235 103.82259 10277 ft 303 kts 249°
2026-04-22 11:40 30.74087 103.80195 11115 ft 308 kts 227°
2026-04-22 11:40 30.72575 103.78357 11664 ft 325 kts 226°
2026-04-22 11:40 30.70947 103.76412 12096 ft 343 kts 226°
2026-04-22 11:41 30.69270 103.74413 12905 ft 347 kts 226°
2026-04-22 11:41 30.67594 103.72386 13778 ft 349 kts 230°
2026-04-22 11:41 30.66260 103.70033 14521 ft 350 kts 246°
2026-04-22 11:41 30.65573 103.67370 15251 ft 350 kts 263°
2026-04-22 11:42 30.65571 103.64559 16012 ft 349 kts 280°
2026-04-22 11:42 30.66161 103.61827 16821 ft 349 kts 287°
2026-04-22 11:42 30.66829 103.59121 17640 ft 349 kts 287°
2026-04-22 11:42 30.67493 103.56403 18425 ft 350 kts 287°
2026-04-22 11:43 30.68151 103.53681 19101 ft 351 kts 287°
2026-04-22 11:43 30.68809 103.50944 19789 ft 352 kts 287°
2026-04-22 11:43 30.69467 103.48199 20494 ft 353 kts 286°
2026-04-22 11:43 30.70127 103.45451 21198 ft 354 kts 286°
2026-04-22 11:44 30.70794 103.42691 21894 ft 356 kts 286°
2026-04-22 11:44 30.71463 103.39918 22612 ft 357 kts 286°
2026-04-22 11:44 30.71907 103.38071 23050 ft 358 kts 286°
2026-04-22 11:44 30.72580 103.35282 23690 ft 359 kts 286°
2026-04-22 11:45 30.73265 103.32444 24194 ft 362 kts 285°
2026-04-22 11:45 30.73937 103.29652 24626 ft 365 kts 285°
2026-04-22 11:45 30.74625 103.26802 25086 ft 368 kts 285°
2026-04-22 11:45 30.75327 103.23890 25538 ft 371 kts 285°
2026-04-22 11:46 30.76013 103.21027 26005 ft 374 kts 284°
2026-04-22 11:46 30.76711 103.18106 26469 ft 376 kts 284°
2026-04-22 11:46 30.77412 103.15161 26873 ft 379 kts 284°
2026-04-22 11:46 30.78117 103.12195 27275 ft 382 kts 283°
2026-04-22 11:47 30.78827 103.09209 27748 ft 384 kts 283°
2026-04-22 11:47 30.79541 103.06207 28204 ft 386 kts 283°
2026-04-22 11:47 30.80242 103.03182 28627 ft 388 kts 280°
2026-04-22 11:47 30.80572 103.00032 29029 ft 388 kts 269°
2026-04-22 11:48 30.80522 102.96883 29457 ft 391 kts 267°
2026-04-22 11:48 30.80465 102.93753 29896 ft 394 kts 267°
2026-04-22 11:48 30.80409 102.90521 30306 ft 396 kts 267°
2026-04-22 11:48 30.80356 102.87352 30656 ft 397 kts 266°
2026-04-22 11:49 30.80303 102.84135 31019 ft 399 kts 266°
2026-04-22 11:49 30.80246 102.80892 31396 ft 401 kts 266°
2026-04-22 11:49 30.80189 102.77640 31782 ft 403 kts 266°
2026-04-22 11:49 30.80129 102.74396 32295 ft 400 kts 265°
2026-04-22 11:50 30.80070 102.71175 32853 ft 397 kts 265°
2026-04-22 11:50 30.80012 102.67976 33312 ft 395 kts 265°
2026-04-22 11:50 30.79953 102.64787 33760 ft 394 kts 264°
2026-04-22 11:50 30.79893 102.61609 34075 ft 393 kts 264°
2026-04-22 11:51 30.79767 102.55291 34171 ft 389 kts 264°
2026-04-22 11:51 30.79634 102.49013 34169 ft 388 kts 264°
2026-04-22 11:52 30.79502 102.42730 34141 ft 389 kts 264°
2026-04-22 11:52 30.79368 102.36449 34138 ft 389 kts 265°
2026-04-22 11:53 30.79225 102.30166 34105 ft 388 kts 265°
2026-04-22 11:53 30.79080 102.23902 34102 ft 389 kts 265°
2026-04-22 11:54 30.78941 102.17617 34057 ft 389 kts 265°
2026-04-22 11:54 30.78795 102.11342 34062 ft 388 kts 265°
2026-04-22 11:55 30.78650 102.05081 34058 ft 388 kts 265°
2026-04-22 11:55 30.78501 101.98854 34021 ft 382 kts 265°
2026-04-22 11:56 30.78343 101.92694 34013 ft 380 kts 265°
2026-04-22 11:56 30.78585 101.86528 33990 ft 385 kts 271°
2026-04-22 11:57 30.79108 101.80338 33990 ft 384 kts 271°
2026-04-22 11:57 30.79621 101.74208 33968 ft 383 kts 271°
2026-04-22 11:58 30.80136 101.68048 33972 ft 383 kts 271°
2026-04-22 11:58 30.80647 101.61886 33969 ft 383 kts 271°
2026-04-22 11:59 30.81151 101.55724 33964 ft 383 kts 271°
2026-04-22 11:59 30.81651 101.49557 33962 ft 382 kts 271°
2026-04-22 12:00 30.82145 101.43396 33969 ft 383 kts 271°
2026-04-22 12:00 30.82635 101.37230 33962 ft 382 kts 270°
2026-04-22 12:01 30.83125 101.31067 33964 ft 383 kts 271°
2026-04-22 12:01 30.83620 101.24880 33963 ft 385 kts 271°
2026-04-22 12:02 30.84110 101.18657 33968 ft 386 kts 271°
2026-04-22 12:02 30.84600 101.12448 33969 ft 385 kts 271°
2026-04-22 12:03 30.85086 101.06243 33969 ft 385 kts 271°
2026-04-22 12:03 30.85571 101.00044 33976 ft 385 kts 271°
2026-04-22 12:04 30.86044 100.93842 33974 ft 385 kts 271°
2026-04-22 12:04 30.86509 100.87648 33972 ft 384 kts 271°
2026-04-22 12:05 30.86982 100.81450 33982 ft 384 kts 271°
2026-04-22 12:05 30.87446 100.75299 33983 ft 385 kts 271°
2026-04-22 12:06 30.87915 100.69095 34002 ft 385 kts 271°
2026-04-22 12:06 30.88376 100.62889 34002 ft 384 kts 271°
2026-04-22 12:07 30.88832 100.56690 34017 ft 384 kts 271°
2026-04-22 12:07 30.89288 100.50549 34015 ft 379 kts 271°
2026-04-22 12:08 30.89738 100.44436 34010 ft 379 kts 271°
2026-04-22 12:08 30.90178 100.38333 34018 ft 379 kts 271°
2026-04-22 12:09 30.90615 100.32248 34020 ft 379 kts 271°
2026-04-22 12:09 30.91052 100.26141 34023 ft 378 kts 271°
2026-04-22 12:10 30.91485 100.20030 34024 ft 379 kts 272°
2026-04-22 12:10 30.91919 100.13913 34025 ft 378 kts 272°
2026-04-22 12:11 30.92349 100.07845 34050 ft 379 kts 272°
2026-04-22 12:11 30.92774 100.01736 34045 ft 378 kts 272°
2026-04-22 12:12 30.93214 99.95620 34066 ft 379 kts 272°
2026-04-22 12:12 30.93716 99.89499 34063 ft 380 kts 272°
2026-04-22 12:13 30.94213 99.83380 34072 ft 379 kts 272°
2026-04-22 12:13 30.94691 99.77308 34073 ft 374 kts 272°
2026-04-22 12:14 30.95161 99.71278 34075 ft 373 kts 272°
2026-04-22 12:14 30.95630 99.65265 34081 ft 373 kts 272°
2026-04-22 12:15 30.96092 99.59249 34081 ft 373 kts 272°
2026-04-22 12:15 30.96557 99.53233 34077 ft 373 kts 272°
2026-04-22 12:16 30.97021 99.47214 34080 ft 373 kts 272°
2026-04-22 12:16 30.97475 99.41194 34076 ft 373 kts 272°
2026-04-22 12:17 30.97928 99.35174 34068 ft 373 kts 272°
2026-04-22 12:17 30.98372 99.29190 34069 ft 373 kts 271°
2026-04-22 12:18 30.98820 99.23132 34055 ft 372 kts 272°
2026-04-22 12:18 30.99265 99.17119 34057 ft 372 kts 272°
2026-04-22 12:19 30.99705 99.11138 34060 ft 373 kts 272°
2026-04-22 12:19 31.00143 99.05115 34051 ft 373 kts 272°
2026-04-22 12:20 31.00577 98.99097 34051 ft 373 kts 272°
2026-04-22 12:20 31.01014 98.93082 34040 ft 372 kts 272°
2026-04-22 12:21 31.01446 98.87071 34041 ft 372 kts 272°
2026-04-22 12:21 31.01868 98.81063 34042 ft 373 kts 272°
2026-04-22 12:22 31.02295 98.75039 34041 ft 373 kts 272°
2026-04-22 12:22 31.02719 98.69005 34040 ft 374 kts 272°
2026-04-22 12:23 31.03160 98.62946 34047 ft 376 kts 273°
2026-04-22 12:23 31.03676 98.56873 34048 ft 376 kts 274°
2026-04-22 12:24 31.04202 98.50793 34051 ft 377 kts 273°
2026-04-22 12:24 31.04708 98.44746 34051 ft 377 kts 273°
2026-04-22 12:25 31.05203 98.38666 34057 ft 376 kts 273°
2026-04-22 12:25 31.05693 98.32593 34069 ft 375 kts 273°
2026-04-22 12:26 31.06188 98.26544 34063 ft 374 kts 273°
2026-04-22 12:26 31.06678 98.20504 34062 ft 374 kts 273°
2026-04-22 12:27 31.07158 98.14459 34077 ft 374 kts 273°
2026-04-22 12:27 31.07634 98.08458 34077 ft 374 kts 274°
2026-04-22 12:28 31.08127 98.02421 34088 ft 373 kts 273°
2026-04-22 12:28 31.08616 97.96389 34094 ft 374 kts 274°
2026-04-22 12:29 31.09094 97.90356 34091 ft 373 kts 274°
2026-04-22 12:29 31.09571 97.84322 34099 ft 374 kts 274°
2026-04-22 12:30 31.10287 97.75268 34099 ft 373 kts 274°
2026-04-22 12:31 31.10753 97.69233 34088 ft 373 kts 274°
2026-04-22 12:31 31.11141 97.64214 34089 ft 374 kts 274°
2026-04-22 12:32 31.11693 97.57158 34074 ft 374 kts 274°
2026-04-22 12:32 31.12312 97.49101 34076 ft 375 kts 274°
2026-04-22 12:33 31.12775 97.43044 34072 ft 375 kts 274°
2026-04-22 12:33 31.13232 97.36981 34073 ft 375 kts 274°
2026-04-22 12:34 31.13688 97.30918 34076 ft 375 kts 274°
2026-04-22 12:34 31.14139 97.24873 34069 ft 375 kts 274°
2026-04-22 12:35 31.14524 97.18805 34069 ft 374 kts 269°
2026-04-22 12:35 31.13636 97.12832 34067 ft 376 kts 257°
2026-04-22 12:36 31.12357 97.06922 34070 ft 375 kts 258°
2026-04-22 12:36 31.11091 97.01009 34071 ft 375 kts 258°
2026-04-22 12:37 31.09827 96.95099 34091 ft 375 kts 258°
2026-04-22 12:37 31.08564 96.89196 34090 ft 375 kts 258°
2026-04-22 12:38 31.07292 96.83296 34103 ft 376 kts 258°
2026-04-22 12:38 31.06012 96.77381 34107 ft 377 kts 258°
2026-04-22 12:39 31.04090 96.68480 34119 ft 378 kts 258°
2026-04-22 12:40 31.02805 96.62583 34116 ft 377 kts 258°
2026-04-22 12:40 31.01514 96.56662 34126 ft 377 kts 258°
2026-04-22 12:41 31.00216 96.50738 34129 ft 377 kts 258°
2026-04-22 12:41 30.98916 96.44812 34127 ft 378 kts 258°
2026-04-22 12:42 30.97622 96.38878 34127 ft 378 kts 258°
2026-04-22 12:42 30.96367 96.32929 34127 ft 378 kts 259°
2026-04-22 12:43 30.95125 96.26977 34129 ft 378 kts 259°
2026-04-22 12:43 30.93878 96.21034 34122 ft 378 kts 258°
2026-04-22 12:44 30.92612 96.15083 34125 ft 378 kts 258°
2026-04-22 12:44 30.91335 96.09129 34129 ft 378 kts 259°
2026-04-22 12:45 30.90063 96.03181 34122 ft 379 kts 258°
2026-04-22 12:45 30.88782 95.97223 34124 ft 380 kts 258°
2026-04-22 12:46 30.87499 95.91248 34118 ft 380 kts 258°
2026-04-22 12:46 30.86215 95.85278 34123 ft 380 kts 258°
2026-04-22 12:47 30.84928 95.79315 34128 ft 380 kts 258°
2026-04-22 12:47 30.83634 95.73354 34116 ft 380 kts 258°
2026-04-22 12:48 30.82388 95.67434 34123 ft 378 kts 259°
2026-04-22 12:48 30.81178 95.61486 34120 ft 378 kts 259°
2026-04-22 12:49 30.79969 95.55532 34122 ft 378 kts 259°
2026-04-22 12:49 30.78749 95.49584 34124 ft 378 kts 259°
2026-04-22 12:50 30.77509 95.43646 34121 ft 378 kts 259°
2026-04-22 12:50 30.76264 95.37706 34124 ft 378 kts 259°
2026-04-22 12:51 30.75020 95.31775 34131 ft 378 kts 258°
2026-04-22 12:51 30.73780 95.25837 34151 ft 378 kts 258°
2026-04-22 12:52 30.72544 95.19934 34152 ft 379 kts 258°
2026-04-22 12:52 30.71300 95.13999 34152 ft 377 kts 258°
2026-04-22 12:53 30.70053 95.08073 34150 ft 377 kts 258°
2026-04-22 12:53 30.68796 95.02155 34153 ft 377 kts 258°
2026-04-22 12:54 30.67536 94.96239 34153 ft 377 kts 258°
2026-04-22 12:54 30.66289 94.90357 34153 ft 378 kts 258°
2026-04-22 12:55 30.65032 94.84424 34150 ft 378 kts 258°
2026-04-22 12:55 30.63770 94.78484 34155 ft 378 kts 258°
2026-04-22 12:56 30.62501 94.72555 34141 ft 378 kts 258°
2026-04-22 12:56 30.61225 94.66631 34145 ft 378 kts 258°
2026-04-22 12:57 30.59954 94.60714 34127 ft 378 kts 259°
2026-04-22 12:57 30.58672 94.54765 34139 ft 381 kts 258°
2026-04-22 12:58 30.57378 94.48782 34139 ft 382 kts 258°
2026-04-22 12:58 30.56084 94.42791 34146 ft 384 kts 258°
2026-04-22 12:59 30.54783 94.36794 34129 ft 383 kts 258°
2026-04-22 12:59 30.53476 94.30805 34125 ft 383 kts 258°
2026-04-22 13:00 30.52170 94.24804 34133 ft 383 kts 258°
2026-04-22 13:00 30.50870 94.18813 34111 ft 384 kts 257°
2026-04-22 13:01 30.49610 94.12777 34133 ft 386 kts 258°
2026-04-22 13:01 30.48366 94.06714 34147 ft 387 kts 258°
2026-04-22 13:02 30.47114 94.00650 34146 ft 387 kts 258°
2026-04-22 13:02 30.45847 93.94592 34152 ft 386 kts 258°
2026-04-22 13:03 30.44582 93.88537 34146 ft 387 kts 257°
2026-04-22 13:03 30.43313 93.82474 34143 ft 387 kts 257°
2026-04-22 13:04 30.42039 93.76448 34141 ft 388 kts 257°
2026-04-22 13:04 30.40756 93.70343 34144 ft 388 kts 257°
2026-04-22 13:05 30.39468 93.64268 34151 ft 388 kts 257°
2026-04-22 13:05 30.37574 93.58416 34149 ft 393 kts 242°
2026-04-22 13:06 30.34472 93.53221 34113 ft 396 kts 238°
2026-04-22 13:06 30.31297 93.47947 34144 ft 397 kts 239°
2026-04-22 13:07 30.28131 93.42706 34142 ft 397 kts 238°
2026-04-22 13:07 30.24982 93.37509 34140 ft 397 kts 238°
2026-04-22 13:08 30.21812 93.32275 34126 ft 397 kts 238°
2026-04-22 13:08 30.18643 93.27046 34128 ft 397 kts 238°
2026-04-22 13:09 30.15469 93.21819 34020 ft 397 kts 238°
2026-04-22 13:09 30.13889 93.19228 33580 ft 392 kts 238°
2026-04-22 13:09 30.12330 93.16680 33244 ft 383 kts 238°
2026-04-22 13:09 30.10806 93.14188 32984 ft 377 kts 239°
2026-04-22 13:10 30.09301 93.11722 32719 ft 374 kts 239°
2026-04-22 13:10 30.07802 93.09255 32463 ft 375 kts 239°
2026-04-22 13:10 30.06308 93.06790 32202 ft 375 kts 239°
2026-04-22 13:10 30.04812 93.04328 31937 ft 374 kts 238°
2026-04-22 13:11 30.03316 93.01872 31684 ft 374 kts 238°
2026-04-22 13:11 30.01817 92.99418 31444 ft 373 kts 238°
2026-04-22 13:11 30.00317 92.96974 31200 ft 373 kts 238°
2026-04-22 13:11 29.98821 92.94541 30948 ft 372 kts 238°
2026-04-22 13:12 29.97327 92.92108 30706 ft 372 kts 238°
2026-04-22 13:12 29.95835 92.89673 30487 ft 372 kts 238°
2026-04-22 13:12 29.94344 92.87240 30247 ft 372 kts 238°
2026-04-22 13:12 29.92853 92.84804 30005 ft 371 kts 238°
2026-04-22 13:13 29.91365 92.82376 29714 ft 370 kts 238°
2026-04-22 13:13 29.89884 92.79958 29445 ft 370 kts 238°
2026-04-22 13:13 29.88399 92.77544 29168 ft 368 kts 238°
2026-04-22 13:13 29.86913 92.75139 28897 ft 368 kts 238°
2026-04-22 13:14 29.85432 92.72744 28636 ft 367 kts 238°
2026-04-22 13:14 29.83954 92.70350 28366 ft 366 kts 238°
2026-04-22 13:14 29.82486 92.67963 28103 ft 365 kts 238°
2026-04-22 13:14 29.81022 92.65576 27828 ft 366 kts 238°
2026-04-22 13:15 29.79549 92.63183 27583 ft 367 kts 237°
2026-04-22 13:15 29.78073 92.60787 27324 ft 366 kts 237°
2026-04-22 13:15 29.76619 92.58433 27073 ft 365 kts 237°
2026-04-22 13:15 29.75145 92.56054 26824 ft 364 kts 237°
2026-04-22 13:16 29.73673 92.53681 26579 ft 364 kts 237°
2026-04-22 13:16 29.72206 92.51312 26330 ft 364 kts 237°
2026-04-22 13:16 29.70737 92.48943 26087 ft 363 kts 237°
2026-04-22 13:16 29.69272 92.46579 25847 ft 363 kts 237°
2026-04-22 13:17 29.67811 92.44218 25598 ft 362 kts 237°
2026-04-22 13:17 29.66350 92.41863 25362 ft 361 kts 237°
2026-04-22 13:17 29.64891 92.39510 25124 ft 361 kts 237°
2026-04-22 13:17 29.63434 92.37162 24892 ft 360 kts 238°
2026-04-22 13:18 29.61982 92.34818 24653 ft 360 kts 237°
2026-04-22 13:18 29.60528 92.32471 24426 ft 360 kts 238°
2026-04-22 13:18 29.59565 92.30921 24274 ft 360 kts 238°
2026-04-22 13:18 29.58112 92.28582 24028 ft 360 kts 238°
2026-04-22 13:19 29.56650 92.26231 23792 ft 363 kts 237°
2026-04-22 13:19 29.55181 92.23871 23572 ft 363 kts 238°
2026-04-22 13:19 29.53688 92.21480 23312 ft 363 kts 237°
2026-04-22 13:19 29.52242 92.19165 23323 ft 362 kts 238°
2026-04-22 13:20 29.50768 92.16801 23329 ft 366 kts 237°
2026-04-22 13:20 29.49284 92.14423 23325 ft 367 kts 237°
2026-04-22 13:20 29.47778 92.12012 23316 ft 367 kts 237°
2026-04-22 13:20 29.46309 92.09665 23299 ft 367 kts 237°
2026-04-22 13:21 29.44816 92.07284 23297 ft 367 kts 237°
2026-04-22 13:21 29.43327 92.04910 23300 ft 367 kts 237°
2026-04-22 13:21 29.41835 92.02529 23306 ft 367 kts 237°
2026-04-22 13:21 29.40345 92.00146 23301 ft 367 kts 237°
2026-04-22 13:22 29.38867 91.97788 23297 ft 358 kts 237°
2026-04-22 13:22 29.37439 91.95514 23292 ft 344 kts 237°
2026-04-22 13:22 29.36047 91.93295 22823 ft 344 kts 237°
2026-04-22 13:22 29.34647 91.91058 22284 ft 346 kts 237°
2026-04-22 13:23 29.33240 91.88814 21775 ft 347 kts 236°
2026-04-22 13:23 29.31827 91.86564 21283 ft 349 kts 237°
2026-04-22 13:23 29.30400 91.84297 20790 ft 352 kts 237°
2026-04-22 13:23 29.28964 91.82015 20301 ft 354 kts 237°
2026-04-22 13:24 29.27546 91.79726 19798 ft 349 kts 240°
2026-04-22 13:24 29.26480 91.77286 19347 ft 339 kts 253°
2026-04-22 13:24 29.25892 91.74712 18884 ft 330 kts 265°
2026-04-22 13:24 29.25764 91.72128 18432 ft 322 kts 276°
2026-04-22 13:25 29.25920 91.69576 17950 ft 321 kts 277°
2026-04-22 13:25 29.26075 91.67024 17437 ft 321 kts 276°
2026-04-22 13:25 29.26221 91.64490 17162 ft 314 kts 276°
2026-04-22 13:25 29.26358 91.62053 17133 ft 299 kts 276°
2026-04-22 13:26 29.26489 91.59737 17144 ft 284 kts 276°
2026-04-22 13:26 29.26614 91.57541 17144 ft 269 kts 276°
2026-04-22 13:26 29.26736 91.55434 17145 ft 262 kts 276°
2026-04-22 13:26 29.26856 91.53362 17146 ft 260 kts 276°
2026-04-22 13:27 29.26973 91.51320 17149 ft 250 kts 276°
2026-04-22 13:27 29.27081 91.49388 17140 ft 239 kts 276°
2026-04-22 13:27 29.27299 91.47526 17145 ft 234 kts 285°
2026-04-22 13:27 29.27786 91.45789 17147 ft 231 kts 295°
2026-04-22 13:28 29.28430 91.44077 17150 ft 231 kts 296°
2026-04-22 13:28 29.29054 91.42403 17151 ft 231 kts 295°
2026-04-22 13:28 29.29685 91.40707 17150 ft 231 kts 295°
2026-04-22 13:28 29.30314 91.39013 17149 ft 231 kts 295°
2026-04-22 13:29 29.30726 91.37229 17149 ft 235 kts 279°
2026-04-22 13:29 29.30739 91.35348 17149 ft 236 kts 271°
2026-04-22 13:29 29.30699 91.33485 17142 ft 226 kts 272°
2026-04-22 13:29 29.30674 91.31791 17151 ft 202 kts 273°
2026-04-22 13:30 29.30657 91.30198 17152 ft 198 kts 273°
2026-04-22 13:30 29.30640 91.28622 17144 ft 197 kts 273°
2026-04-22 13:30 29.30622 91.27051 16979 ft 197 kts 273°
2026-04-22 13:30 29.30603 91.25489 16746 ft 196 kts 273°
2026-04-22 13:31 29.30585 91.23927 16498 ft 195 kts 272°
2026-04-22 13:31 29.30566 91.22377 16248 ft 194 kts 272°
2026-04-22 13:31 29.30547 91.20832 16001 ft 194 kts 272°
2026-04-22 13:31 29.30528 91.19301 15750 ft 187 kts 272°
2026-04-22 13:32 29.30509 91.17837 15519 ft 182 kts 271°
2026-04-22 13:32 29.30491 91.16397 15298 ft 180 kts 271°
2026-04-22 13:32 29.30473 91.14964 15073 ft 180 kts 271°
2026-04-22 13:32 29.30455 91.13532 14849 ft 180 kts 272°
2026-04-22 13:33 29.30437 91.12102 14629 ft 180 kts 271°
2026-04-22 13:33 29.30418 91.10669 14411 ft 179 kts 272°
2026-04-22 13:33 29.30399 91.09242 14194 ft 179 kts 272°
2026-04-22 13:33 29.30380 91.07814 13983 ft 179 kts 272°
2026-04-22 13:34 29.30361 91.06390 13781 ft 178 kts 272°
2026-04-22 13:34 29.30342 91.04975 13616 ft 177 kts 271°
2026-04-22 13:34 29.30323 91.03564 13452 ft 177 kts 270°
2026-04-22 13:34 29.30309 91.02161 13308 ft 175 kts 270°
2026-04-22 13:35 29.30304 91.00766 13117 ft 175 kts 270°
2026-04-22 13:35 29.30296 90.99374 12839 ft 174 kts 270°
2026-04-22 13:35 29.30290 90.97996 12442 ft 172 kts 271°
2026-04-22 13:35 29.30255 90.96629 12241 ft 172 kts 269°
2026-04-22 13:36 29.30211 90.95250 11959 ft 174 kts 268°
2026-04-22 13:36 29.30163 90.93873 11805 ft 173 kts 270°
2026-04-22 13:36 29.30163 90.92513 11551 ft 172 kts 271°
2026-04-22 13:36 29.30159 90.91249 11537 ft 138 kts 268°
2026-04-22 13:37 29.30132 90.90348 11540 ft 81 kts 269°
2026-04-22 13:37 29.30047 90.90057 11534 ft 18 kts 241°
2026-04-22 13:37 29.30009 90.89981 11532 ft 4 kts 241°
2026-04-22 13:37 29.30008 90.89977 11531 ft 0 kts 241°
2026-04-22 13:38 29.29993 90.89948 11541 ft 9 kts 240°
2026-04-22 13:38 29.29972 90.89773 11542 ft 14 kts 270°
2026-04-22 13:38 29.29974 90.89654 11542 ft 16 kts 270°
2026-04-22 13:39 29.29972 90.89523 11539 ft 16 kts 269°
2026-04-22 13:39 29.29969 90.89385 11540 ft 18 kts 269°
2026-04-22 13:39 29.29966 90.89232 11533 ft 20 kts 269°
2026-04-22 13:39 29.29963 90.89068 11540 ft 19 kts 269°
2026-04-22 13:40 29.29960 90.88914 11545 ft 17 kts 269°
2026-04-22 13:40 29.29925 90.88791 11545 ft 18 kts 223°
2026-04-22 13:40 29.29828 90.88706 11544 ft 14 kts 212°
2026-04-22 13:40 29.29724 90.88702 11535 ft 16 kts 177°
2026-04-22 13:41 29.29602 90.88710 11533 ft 18 kts 176°
2026-04-22 13:41 29.29516 90.88761 11528 ft 12 kts 120°
2026-04-22 13:41 29.29500 90.88865 11538 ft 15 kts 95°
2026-04-22 13:41 29.29505 90.88988 11538 ft 15 kts 88°
2026-04-22 13:42 29.29509 90.89098 11528 ft 8 kts 88°
2026-04-22 13:42 29.29511 90.89173 11539 ft 11 kts 91°
2026-04-22 13:42 29.29456 90.89235 11539 ft 13 kts 144°
2026-04-22 13:42 29.29385 90.89295 11533 ft 12 kts 142°
2026-04-22 13:43 29.29339 90.89337 11537 ft 0 kts 142°